CZ-6A DEB

Satellite information

Favourite Embed

Satellite Type and Status

DEBRISIN ORBIT

Key statistics

Satellite CZ-6A DEB at a glance.

Uptime

1078

Days in orbit

Revolutions

≈ 13.9

Per day

Orbit

SSO

Sun Synchronous Orbit

Inclination

99.0

Latest

Satellite identification and parameters

Extended collection of information and parameters for CZ-6A DEB.

Object identification

Identified? True

Debris? True

Object name: CZ-6A DEB

International designator: 2022-151FZ

Object number (NORAD): 54449

Object ID (CCSDS): 54449

Country: PEOPLES REPUBLIC OF CHINA (PRC)

Current information (Y/N): Y

RCS size: SMALL

Orbital parameters

Period: 103.394 minutes

Inclination: 98.9528 deg

SMA: 7297.222 km

Apoapsis: 1016.561 km

Periapsis: 821.613 km

RAAN: 274.2084 deg

Eccentricy: 0.0133577

Argument of periapsis: 2.893 deg

Mean anomaly: 357.2974 deg

Mean motion: 13.92728331 rev/day

Mean motion (dot): 0.00001568 rev/day2

B* drag term: 0.0011575 1/REarth

Two-line elements (TLE)

Creation date: Oct. 23, 2025, 10:16 p.m.

Reference frame: TEME

Reference center: EARTH

Epoch: Oct. 23, 2025, 9:12 a.m. UTC

TLE line 0: 0 CZ-6A DEB

TLE line 1: 1 54449U 22151FZ 25296.38366034 .00001568 00000-0 11575-2 0 9995

TLE line 2: 2 54449 98.9528 274.2084 0133577 2.8930 357.2974 13.92728331149464

Live tracking on map

Real-time ground track for satellite CZ-6A DEB.

In-orbit conjunctions

A list of the most updated potential collisions computed for object CZ-6A DEB.

Target Orbit TCA Probability of collision Miss distance Type
FENGYUN 1C DEB SSO 2024-11-15 14:30:21 0.0001658594 604.0 (m) DEBRIS
THORAD AGENA D DEB SSO 2024-11-14 12:35:25 0.0001698614 931.0 (m) DEBRIS

Associated space launch

Chinese satellite reported for atmospheric/ocean/environmental/spatial parameter research purposes, details TBD.

CZ-6A DEB was lifted into orbit during the mission ‘Long March 6A | Yunhai 3’, on board a Long March 6A space rocket.

The launch took place on Nov. 11, 2022, 10:52 p.m. from Launch Complex 9A.

For more information about the launch, click the button.

Launch to space Long March 6A | Yunhai 3
Long March 6A | Yunhai 3

Agency: N/A

Status: Launch Successful

Launch date: Nov. 11, 2022, 10:52 p.m. UTC

Rocket: Long March 6A

Launch pad: Launch Complex 9A

Location: Taiyuan Satellite Launch Center, People's Republic of China

...

Latest news about this satellite

There are no fresh news available about this satellite. Check back as we update our databases every day.


Newsletter sign-up

Weekly statistics, charts and insights to help you stay on top of the space industry.